Meadville, PA

10:13 PM EST on November 23, 2017 (GMT -0500)
Port Meadville

Weather History for KGKJ - March, 2014

Change the Weather History Date:

Monday, March 24, 2014

  Actual Average Record
Temperature  
Mean Temperature 18 °F -  
Max Temperature 26 °F 47 °F 76 °F (1966)
Min Temperature 12 °F 24 °F 9 °F (1992)
Degree Days  
Heating Degree Days 46    
Moisture  
Dew Point 12 °F    
Average Humidity 72    
Maximum Humidity 88    
Minimum Humidity 55    
Precipitation  
Precipitation 0.00 in - - ()
Sea Level Pressure  
Sea Level Pressure 30.21 in    
Wind  
Wind Speed 5 mph (West)    
Max Wind Speed 10 mph    
Max Gust Speed 21 mph    
Visibility 6 miles    
Events Snow    
Averages and records for this station are not official NWS values.
T = Trace of Precipitation, MM = Missing Value Source: NWS Daily Summary

Daily Weather History Graph

Daily Weather History Graph

Search for Another Location

Airport or City:

Trip Planner

Search our weather history database for the weather conditions in past years. The results will help you decide how hot, cold, wet, or windy it might be!

Date:

Astronomy

Mar. 24, 2014 Rise Set
Actual Time 7:17 AM EDT 7:37 PM EDT
Civil Twilight 6:49 AM EDT 8:05 PM EDT
Nautical Twilight 6:17 AM EDT 8:37 PM EDT
Astronomical Twilight 5:43 AM EDT 9:11 PM EDT
Moon 2:50 AM EDT 12:56 PM EDT
Length of Visible Light 13h 15m
Length of Day
12h 20m
Last Quarter, 43% of the Moon is Illuminated
Mar 24
Last Quarter
Mar 30
New
Apr 7
First Quarter
Apr 15
Full
Apr 22
Last Quarter

Hourly Weather History & Observations

Time (EDT) Temp. Windchill Dew Point Humidity Pressure Visibility Wind Dir Wind Speed Gust Speed Precip Events Conditions
12:30 AM 15.8 °F 6.1 °F 10.4 °F 79% 30.27 in 2.5 mi NNW 6.9 mph - 0.00 in Snow Light Snow
12:35 AM 15.8 °F 8.6 °F 10.4 °F 79% 30.26 in 7.0 mi North 4.6 mph - 0.00 in   Overcast
12:53 AM 15.1 °F 9.4 °F 8.1 °F 74% 30.33 in 10.0 mi NNW 3.5 mph - 0.00 in   Scattered Clouds
1:53 AM 14.0 °F - 8.1 °F 77% 30.32 in 10.0 mi Calm Calm - N/A   Clear
2:53 AM 12.0 °F - 8.1 °F 84% 30.32 in 10.0 mi Calm Calm - N/A   Clear
3:53 AM 12.9 °F 6.9 °F 8.1 °F 81% 30.31 in 10.0 mi SW 3.5 mph - N/A   Clear
4:53 AM 12.0 °F - 8.1 °F 84% 30.30 in 10.0 mi Calm Calm - N/A   Clear
5:53 AM 12.0 °F 5.9 °F 9.0 °F 88% 30.31 in 10.0 mi SW 3.5 mph - N/A   Clear
6:53 AM 12.9 °F 6.9 °F 8.1 °F 81% 30.31 in 10.0 mi SSW 3.5 mph - N/A   Overcast
7:53 AM 14.0 °F - 10.0 °F 84% 30.31 in 6.0 mi Calm Calm - N/A   Overcast
8:09 AM 15.8 °F - 10.4 °F 79% 30.23 in 1.8 mi Calm Calm - 0.00 in Snow Light Snow
8:34 AM 15.8 °F 8.6 °F 10.4 °F 79% 30.24 in 3.0 mi SSW 4.6 mph - 0.00 in Snow Light Snow
8:53 AM 15.1 °F 7.7 °F 12.0 °F 88% 30.32 in 9.0 mi SW 4.6 mph - 0.00 in   Overcast
9:53 AM 18.0 °F - 12.9 °F 81% 30.31 in 10.0 mi Calm Calm - N/A   Mostly Cloudy
10:53 AM 19.9 °F 11.1 °F 8.1 °F 60% 30.30 in 10.0 mi West 6.9 mph - N/A   Mostly Cloudy
11:53 AM 23.0 °F 13.9 °F 10.0 °F 58% 30.28 in 10.0 mi WSW 8.1 mph - N/A   Mostly Cloudy
12:53 PM 24.1 °F 19.7 °F 10.9 °F 57% 30.26 in 6.0 mi Variable 3.5 mph - 0.00 in Snow Light Snow
1:53 PM 23.0 °F 15.8 °F 9.0 °F 55% 30.24 in 7.0 mi West 5.8 mph - 0.00 in Snow Light Snow
2:49 PM 24.8 °F 15.3 °F 12.2 °F 59% 30.15 in 2.0 mi West 9.2 mph 20.7 mph 0.00 in Snow Light Snow
2:53 PM 24.1 °F 14.4 °F 12.9 °F 62% 30.22 in 3.0 mi West 9.2 mph - 0.00 in Snow Light Snow
3:02 PM 23.0 °F 13.1 °F 12.2 °F 63% 30.15 in 1.5 mi West 9.2 mph - 0.00 in Snow Light Snow
3:14 PM 24.8 °F 14.6 °F 15.8 °F 69% 30.14 in 0.5 mi West 10.4 mph 17.3 mph 0.00 in Snow Snow
3:28 PM 24.8 °F 16.9 °F 15.8 °F 69% 30.14 in 1.2 mi WNW 6.9 mph - 0.00 in Snow Light Snow
3:46 PM 23.0 °F 14.7 °F 15.8 °F 74% 30.13 in 0.2 mi West 6.9 mph - 0.00 in Snow Heavy Snow
3:53 PM 23.0 °F 15.8 °F 17.1 °F 78% 30.20 in 0.5 mi WSW 5.8 mph - 0.00 in Snow Snow
4:00 PM 23.0 °F 15.8 °F 15.8 °F 74% 30.12 in 2.0 mi West 5.8 mph - 0.00 in Snow Light Snow
4:07 PM 23.0 °F 15.8 °F 15.8 °F 74% 30.12 in 9.0 mi Variable 5.8 mph - 0.00 in   Overcast
4:12 PM 24.8 °F 16.1 °F 15.8 °F 69% 30.12 in 1.5 mi WSW 8.1 mph - 0.00 in Snow Light Snow
4:20 PM 24.8 °F 17.9 °F 17.6 °F 74% 30.12 in 0.5 mi West 5.8 mph - 0.00 in Snow Snow
4:26 PM 24.8 °F 14.6 °F 15.8 °F 69% 30.11 in 2.5 mi WNW 10.4 mph - 0.00 in Snow Light Snow
4:32 PM 24.8 °F 15.3 °F 15.8 °F 69% 30.11 in 8.0 mi WSW 9.2 mph - 0.00 in   Overcast
4:53 PM 25.0 °F 17.1 °F 15.1 °F 66% 30.18 in 10.0 mi WSW 6.9 mph - 0.00 in   Overcast
5:53 PM 25.0 °F 19.3 °F 12.9 °F 60% 30.16 in 10.0 mi WNW 4.6 mph - N/A   Overcast
6:53 PM 25.0 °F 14.8 °F 12.0 °F 58% 30.15 in 10.0 mi West 10.4 mph - N/A   Overcast
7:23 PM 24.8 °F 14.6 °F 15.8 °F 69% 30.09 in 1.8 mi NW 10.4 mph - 0.00 in Snow Light Snow
7:35 PM 23.0 °F 17.0 °F 15.8 °F 74% 30.09 in 3.0 mi NW 4.6 mph - 0.00 in Snow Light Snow
7:53 PM 21.9 °F 14.5 °F 15.1 °F 75% 30.17 in 3.0 mi NNW 5.8 mph - 0.00 in Snow Light Snow
8:53 PM 21.0 °F - 12.9 °F 71% 30.17 in 10.0 mi Calm Calm - 0.00 in   Clear
9:53 PM 19.9 °F - 10.0 °F 65% 30.15 in 10.0 mi Calm Calm - N/A   Partly Cloudy
10:53 PM 19.0 °F 13.9 °F 10.9 °F 71% 30.12 in 10.0 mi South 3.5 mph - N/A   Partly Cloudy
11:53 PM 19.0 °F 13.9 °F 10.0 °F 68% 30.11 in 10.0 mi SSE 3.5 mph - N/A   Clear